This is the latest recevied weather packets stored in our database for station/object KB1QVF. If no packets are shown the sender has not sent any weather packets the latest 10 day(s).
| Time | Temp. | Humidity | Pressure | Rain* | Wind** | Luminosity | Snow |
|---|---|---|---|---|---|---|---|
| 1777736949 | 10° C | 76% | 1013.7 hPa | 0 mm | - | 81 W/m² | - |
| 1777736043 | 10° C | 74% | 1013.9 hPa | 0 mm | - | 155 W/m² | - |
| 1777735740 | 10° C | 77% | 1013.7 hPa | 0 mm | - | 204 W/m² | - |
| 1777735437 | 10° C | 75% | 1013.4 hPa | 0 mm | - | 316 W/m² | - |
| 1777735135 | 10° C | 70% | 1013.7 hPa | 0 mm | - | 98 W/m² | - |
| 1777734831 | 10° C | 67% | 1013.7 hPa | 0 mm | - | 86 W/m² | - |
| 1777734529 | 10.56° C | 64% | 1013.6 hPa | 0 mm | - | 74 W/m² | - |
| 1777734225 | 10.56° C | 72% | 1013.6 hPa | 0 mm | - | 142 W/m² | - |
| 1777733922 | 10.56° C | 70% | 1013.7 hPa | 0 mm | - | 119 W/m² | - |
| 1777733618 | 10.56° C | 70% | 1013.7 hPa | 0 mm | - | 91 W/m² | - |
| 1777733315 | 10.56° C | 70% | 1014.1 hPa | 0 mm | - | 45 W/m² | - |
| 1777733012 | 10.56° C | 77% | 1013.9 hPa | 0 mm | - | 115 W/m² | - |
| 1777732708 | 10.56° C | 78% | 1014.1 hPa | 0 mm | - | 89 W/m² | - |
| 1777732405 | 10.56° C | 78% | 1013.8 hPa | 0 mm | - | 205 W/m² | - |
| 1777732103 | 10.56° C | 77% | 1013.9 hPa | 0 mm | - | 145 W/m² | - |
| 1777731800 | 10.56° C | 77% | 1013.7 hPa | 0 mm | - | 147 W/m² | - |
| 1777731496 | 11.11° C | 76% | 1014 hPa | 0 mm | - | 159 W/m² | - |
| 1777731195 | 11.11° C | 75% | 1013.9 hPa | 0 mm | - | 165 W/m² | - |
| 1777730892 | 11.11° C | 75% | 1013.7 hPa | 0 mm | - | 153 W/m² | - |
| 1777730590 | 11.11° C | 76% | 1013.8 hPa | 0 mm | - | 177 W/m² | - |
| 1777730286 | 11.11° C | 76% | 1013.9 hPa | 0 mm | - | 250 W/m² | - |
| 1777729983 | 10.56° C | 78% | 1013.9 hPa | 0 mm | - | 171 W/m² | - |
| 1777729678 | 10.56° C | 78% | 1013.7 hPa | 0 mm | - | 159 W/m² | - |
| 1777729375 | 10.56° C | 78% | 1013.8 hPa | 0 mm | - | 239 W/m² | - |
| 1777729072 | 10° C | 79% | 1014 hPa | 0 mm | - | 170 W/m² | - |
* Rain latest hour (hover to see other rain measurements)
** Current wind speed in m/s (hover to see current wind gust speed)